Torna al catalogo

SL-8 DEB

AttivoLEO
NORAD 21252·DEBRIS·🇷🇺 Russia

Lanciato Feb 12, 1991 da Plesetsk Cosmodrome

Loading…

Prossimi Passaggi (prossime 24 ore)

TLE

AggiornatoSource: Space-Track

Epoca: Sep 14, 2026, 08:00 UTC

1 21252U 91009BK  26257.33398640 -.00000023  00000-0 -71248-4 0  9992
2 21252  74.1087   5.0052 0124258 265.9718 121.6517 12.24993509587921

Traccia SL-8 DEB in tempo reale con AllMySat

Download on the App Store